Wind_Speed
96 101 100 119 113 107 103 98 92 88 83 85 80 78 76 72 71 65 59 53 47 48 48 42 40 40 39 37 36 32 33 34 30 29 33 34 34 34 38 40 41 43 46 51
94 90 94 120 116 110 106 101 97 93 86 87 79 77 77 73 66 65 60 54 48 47 47 44 41 42 41 38 36 36 36 31 32 33 34 33 33 34 35 39 42 42 51 50
87 83 102 125 119 113 109 97 96 95 91 87 84 81 69 69 62 63 58 58 53 54 52 50 44 42 41 39 38 36 36 34 34 37 38 39 36 35 34 38 43 44 49 52
84 86 95 124 115 112 105 101 97 97 95 92 86 79 79 71 66 65 60 56 56 55 55 52 43 42 41 42 37 35 36 36 39 39 36 38 36 37 36 40 44 45 50 52
74 83 90 119 108 104 98 102 98 96 96 92 89 86 78 82 78 71 66 61 57 58 57 56 51 50 45 40 39 39 37 40 39 39 39 36 39 41 40 43 47 47 52 56
77 86 86 110 110 99 95 96 96 97 96 95 90 87 85 76 68 72 70 68 62 61 58 57 58 54 50 46 42 42 46 47 44 44 44 43 41 46 46 48 49 47 53 59
77 84 80 107 111 102 95 98 104 103 96 97 94 92 77 81 75 71 65 63 63 62 60 58 55 57 57 53 48 45 47 46 46 48 48 47 45 50 49 52 53 53 54 59
81 82 83 105 109 97 92 93 90 94 90 88 93 88 79 82 77 75 74 72 70 67 67 65 62 60 62 63 53 50 49 48 47 48 49 51 51 52 54 57 56 56 59 62
82 80 87 109 109 93 98 96 86 86 84 84 84 83 83 81 73 75 75 71 68 66 63 62 61 57 56 58 58 53 52 48 48 49 51 54 56 54 57 61 58 60 62 65
83 84 102 110 104 95 91 97 98 94 89 84 79 77 79 78 81 82 74 72 70 69 66 63 65 66 64 60 56 54 51 49 52 54 55 57 57 61 62 62 60 63 66 68
79 84 98 107 104 97 87 94 98 97 92 85 84 78 76 79 84 84 81 78 76 73 74 69 70 68 65 63 63 59 58 56 56 55 56 58 60 63 64 62 65 65 68 68
77 83 99 102 97 95 91 85 87 91 87 85 89 81 78 79 78 80 80 78 76 76 78 76 71 67 69 70 65 64 63 57 58 58 60 60 66 65 66 66 66 68 71 72
79 88 100 98 101 101 93 87 87 91 87 80 82 94 91 85 85 82 82 81 79 77 78 76 73 75 72 69 65 66 67 60 63 65 61 66 68 66 67 70 68 72 74 73
86 95 105 101 103 105 97 90 90 92 96 90 85 83 87 84 84 86 86 86 82 80 74 75 80 77 73 73 72 71 69 66 69 71 65 69 73 69 69 70 72 76 77 77
94 100 110 108 103 105 97 95 94 96 95 92 89 91 85 85 87 85 83 83 84 84 81 79 79 77 79 77 76 77 74 72 76 70 70 74 71 69 69 74 78 79 80 80
93 107 111 114 109 105 104 95 95 99 102 100 97 94 92 88 85 87 85 83 82 84 84 84 83 82 81 79 80 79 77 80 80 74 72 72 77 78 73 77 81 80 82 84
89 111 110 112 112 108 108 99 97 96 102 101 100 102 97 92 91 94 92 89 88 83 82 83 80 81 81 79 79 81 82 81 80 75 76 82 84 82 81 86 78 83 88 89
90 102 114 114 112 111 112 105 93 97 95 99 100 102 105 99 97 93 89 88 83 84 85 85 84 81 82 84 84 83 85 83 80 82 86 87 83 81 82 84 81 87 93 89
85 96 115 115 112 113 113 111 102 98 98 99 96 99 100 98 100 100 98 95 89 90 92 89 87 89 86 88 89 86 82 86 83 85 87 89 84 82 85 92 98 92 85 86
88 93 105 119 115 113 116 117 113 103 104 101 102 99 100 102 101 95 98 100 99 96 94 97 98 90 82 82 88 83 84 86 87 90 90 90 90 93 95 91 90 89 95 98
89 92 97 113 121 115 116 118 116 113 106 108 109 108 107 104 98 101 96 97 98 96 91 90 87 89 89 91 89 91 92 96 95 92 93 94 95 96 98 93 97 109 101 107
77 94 95 102 121 121 116 118 116 120 118 107 106 111 110 109 110 113 107 98 99 100 98 97 97 96 95 94 96 93 93 97 98 100 102 102 99 97 102 108 107 99 100 104
72 81 96 99 109 126 125 117 119 121 121 124 118 105 99 112 117 117 114 114 113 108 106 107 109 109 106 105 106 103 104 108 106 104 107 108 107 109 112 106 98 109 116 110
65 76 83 96 104 121 130 133 127 125 125 126 128 126 126 115 98 105 116 118 120 121 122 121 120 118 118 111 108 107 107 107 107 110 110 109 106 104 103 108 115 112 108 109
38 58 77 84 95 103 111 137 133 133 125 124 124 125 129 125 125 123 106 108 113 116 116 118 117 117 116 114 111 114 110 108 108 108 107 111 111 109 109 107 109 111 115 111
22 34 53 73 81 87 96 104 122 137 132 128 125 123 125 125 124 126 126 114 112 116 114 112 111 111 109 108 109 110 112 109 108 109 110 111 109 108 106 110 110 108 112 112
Wind_Direction
210 215 208 200 204 205 203 200 206 212 216 214 214 211 212 213 218 223 224 227 223 224 234 246 247 242 241 245 250 254 259 264 271 276 281 285 293 298 302 301 303 303 313 319
211 214 203 198 203 203 202 201 203 210 214 216 214 214 218 213 216 222 225 227 222 227 232 236 232 235 239 249 252 253 257 260 270 277 280 286 294 298 302 302 305 307 317 317
209 205 201 196 201 202 202 203 206 210 216 216 216 213 217 218 220 223 224 227 225 226 231 236 239 245 251 250 252 255 257 261 273 278 280 285 286 297 305 304 307 307 313 318
203 201 201 196 199 199 203 203 207 210 217 217 217 216 220 214 218 222 221 223 224 227 230 235 236 240 245 252 252 253 260 263 272 277 278 282 285 297 304 303 305 306 312 316
193 198 199 197 196 198 200 205 210 213 217 220 219 219 219 221 219 223 225 223 223 226 231 235 237 241 247 251 253 255 264 266 274 275 279 286 287 293 301 306 304 307 311 312
193 196 198 192 192 194 198 204 210 214 218 221 222 223 223 224 226 228 228 227 228 232 234 241 243 246 251 257 258 261 265 268 277 275 277 285 293 294 298 304 303 306 312 314
193 195 194 190 193 195 195 197 207 211 214 219 222 222 221 225 222 225 225 230 233 234 236 242 246 248 251 256 261 268 268 270 274 277 279 288 294 291 298 302 300 302 306 314
192 193 190 189 191 196 198 200 206 209 212 216 221 219 223 227 223 224 227 232 236 239 241 243 247 249 253 256 260 267 266 266 272 277 283 287 291 292 295 299 298 301 305 308
191 191 187 188 191 194 198 200 202 206 208 213 218 219 220 225 228 235 233 233 238 241 243 245 249 253 257 259 260 263 268 267 273 283 288 285 289 291 293 297 295 298 302 307
193 190 187 187 191 194 199 204 210 212 212 212 214 217 219 228 234 234 235 238 239 242 241 245 253 258 261 263 267 267 269 273 279 285 285 285 289 294 293 293 294 298 300 306
194 193 189 189 192 197 199 204 210 215 216 216 217 217 222 227 233 233 235 239 242 245 250 251 258 259 258 265 270 269 275 277 283 284 282 284 287 292 291 291 295 297 300 303
194 191 190 191 195 199 201 205 209 213 215 219 220 218 219 223 228 233 237 237 241 246 250 254 254 255 262 267 265 270 275 276 280 278 278 283 287 288 290 291 294 296 298 300
195 193 189 193 194 198 201 206 210 214 215 217 220 223 224 224 228 232 236 241 247 248 251 254 251 258 262 264 265 268 272 275 281 279 279 288 286 285 289 291 294 297 297 299
195 194 192 193 198 200 201 205 209 213 218 219 220 222 225 226 228 232 238 242 244 246 247 251 255 258 263 266 269 271 272 278 278 277 279 288 285 282 286 291 296 295 295 296
197 195 196 196 199 203 203 208 211 214 216 217 220 221 224 228 229 232 231 237 239 239 244 247 249 255 264 265 267 272 267 274 276 272 278 284 284 279 284 290 294 292 291 292
201 197 198 199 200 202 203 208 214 217 218 220 219 223 222 225 230 230 231 233 238 241 245 245 255 254 262 263 265 265 265 276 274 273 281 281 277 277 284 290 290 288 289 290
205 204 202 203 203 206 205 208 214 218 222 223 225 225 227 229 230 230 232 237 241 244 247 251 249 254 258 260 261 266 268 271 269 276 277 272 272 275 280 289 287 288 290 293
208 208 210 206 205 208 210 210 215 219 221 224 226 228 229 233 235 234 239 240 241 243 243 246 251 254 256 261 263 263 267 265 269 277 276 274 276 278 282 287 286 287 286 289
214 212 212 211 208 211 212 214 216 221 224 226 227 230 231 234 237 239 238 239 243 245 245 248 248 256 258 258 257 260 262 264 267 271 271 272 276 278 279 281 286 289 287 288
215 216 215 213 212 214 217 217 218 223 226 228 229 229 232 234 236 238 242 244 246 247 249 251 255 254 252 255 255 260 262 262 266 269 271 274 277 280 284 285 287 283 286 286
218 217 218 217 217 219 221 220 220 222 227 230 232 234 235 233 235 240 241 244 247 249 251 248 245 245 251 253 258 260 265 266 268 269 272 275 277 280 281 283 283 287 282 285
222 221 220 221 221 220 222 222 223 225 225 227 234 236 236 236 239 241 239 241 244 247 247 248 247 250 255 258 261 263 263 263 266 269 272 275 276 276 279 284 284 281 283 285
228 225 224 224 225 222 223 224 227 227 227 228 230 232 237 238 241 241 242 245 246 248 249 250 251 256 257 259 262 262 265 266 269 272 276 276 276 278 283 280 278 280 288 290
232 230 229 227 227 227 226 226 227 228 231 231 233 235 237 238 241 245 246 247 248 250 252 255 257 258 261 264 264 266 267 270 272 272 274 276 275 276 277 281 281 287 287 288
238 234 232 231 232 231 233 231 231 231 233 235 236 239 241 243 245 244 246 247 248 250 252 255 257 260 262 263 264 265 268 268 270 271 272 274 276 278 280 284 284 286 288 287
255 242 236 235 235 234 237 238 238 237 236 235 235 236 239 240 241 243 244 247 251 254 253 257 259 262 263 265 266 266 267 268 271 274 274 274 277 281 281 283 284 283 285 285
Height
10431 10457 10493 10529 10556 10577 10596 10612 10632 10645 10656 10664 10681 10684 10697 10710 10720 10731 10741 10747 10753 10758 10767 10771 10774 10777 10781 10783 10786 10789 10790 10791 10793 10793 10793 10793 10792 10790 10787 10783 10780 10777 10772 10769
10419 10460 10495 10516 10536 10559 10585 10603 10617 10625 10635 10651 10671 10680 10684 10699 10711 10721 10730 10737 10744 10753 10758 10762 10765 10768 10772 10775 10778 10780 10782 10783 10785 10785 10785 10785 10784 10782 10780 10775 10772 10768 10763 10759
10416 10455 10462 10490 10515 10547 10577 10598 10612 10623 10630 10645 10655 10668 10676 10693 10701 10712 10722 10727 10736 10743 10749 10754 10757 10760 10764 10766 10769 10772 10773 10776 10777 10777 10776 10777 10774 10774 10772 10768 10764 10760 10754 10750
10411 10433 10458 10483 10510 10538 10567 10589 10598 10607 10617 10633 10643 10664 10665 10680 10690 10702 10714 10722 10729 10734 10740 10744 10747 10750 10752 10756 10762 10763 10765 10767 10768 10768 10767 10768 10765 10764 10763 10760 10756 10751 10746 10741
10416 10434 10457 10483 10524 10546 10565 10579 10591 10602 10611 10621 10632 10645 10663 10667 10682 10696 10705 10712 10719 10724 10729 10732 10736 10739 10744 10751 10753 10755 10755 10757 10759 10759 10757 10759 10756 10754 10754 10750 10746 10743 10737 10732
10410 10432 10451 10488 10510 10534 10553 10568 10581 10589 10598 10602 10622 10642 10649 10673 10684 10683 10692 10702 10708 10713 10719 10721 10726 10732 10737 10739 10742 10744 10745 10748 10749 10749 10748 10749 10747 10743 10744 10740 10736 10734 10729 10724
10412 10435 10459 10482 10504 10520 10539 10551 10560 10573 10580 10600 10613 10627 10653 10658 10665 10672 10680 10689 10696 10701 10707 10711 10718 10722 10725 10728 10732 10735 10736 10737 10739 10740 10738 10737 10737 10733 10733 10729 10725 10722 10720 10715
10413 10436 10456 10481 10503 10530 10545 10550 10565 10572 10579 10599 10603 10629 10648 10645 10652 10661 10671 10678 10683 10693 10698 10702 10704 10709 10714 10717 10722 10724 10726 10729 10729 10730 10728 10725 10725 10724 10722 10719 10714 10711 10708 10704
10417 10439 10458 10477 10502 10519 10532 10544 10555 10564 10576 10585 10602 10623 10635 10634 10644 10655 10661 10668 10675 10680 10684 10687 10691 10696 10701 10706 10709 10712 10716 10720 10720 10719 10717 10715 10713 10712 10711 10708 10703 10700 10695 10692
10417 10433 10446 10474 10495 10509 10524 10540 10542 10552 10564 10577 10595 10607 10618 10618 10629 10638 10646 10653 10658 10662 10670 10675 10679 10687 10692 10694 10697 10700 10705 10709 10710 10709 10707 10704 10703 10702 10699 10695 10691 10688 10683 10680
10419 10434 10457 10473 10485 10503 10517 10525 10535 10545 10554 10570 10584 10596 10602 10607 10613 10625 10633 10637 10642 10650 10658 10668 10672 10675 10678 10681 10687 10690 10693 10696 10697 10696 10695 10695 10693 10690 10687 10683 10679 10675 10671 10667
10418 10434 10452 10468 10484 10498 10509 10520 10529 10534 10545 10558 10570 10581 10591 10596 10601 10610 10617 10625 10633 10639 10646 10653 10660 10664 10666 10669 10673 10678 10682 10684 10683 10684 10683 10683 10682 10678 10674 10670 10666 10663 10659 10653
10413 10429 10445 10458 10465 10476 10490 10503 10513 10522 10532 10544 10554 10564 10577 10587 10592 10598 10606 10611 10621 10626 10632 10637 10643 10650 10654 10658 10662 10665 10669 10669 10670 10670 10670 10670 10667 10664 10661 10657 10653 10650 10646 10640
10407 10421 10434 10445 10456 10465 10479 10490 10497 10509 10519 10530 10540 10550 10561 10571 10579 10586 10593 10599 10607 10615 10618 10622 10628 10634 10640 10645 10649 10652 10654 10654 10655 10655 10655 10654 10652 10650 10647 10643 10640 10636 10631 10625
10401 10413 10421 10430 10445 10459 10474 10481 10487 10496 10504 10514 10524 10537 10544 10554 10563 10573 10580 10586 10592 10602 10608 10611 10616 10621 10626 10631 10636 10638 10639 10640 10639 10639 10639 10639 10637 10635 10632 10629 10626 10622 10616 10610
10397 10404 10412 10418 10431 10445 10461 10472 10479 10484 10491 10501 10512 10522 10531 10543 10551 10559 10566 10574 10579 10585 10592 10599 10605 10610 10614 10617 10620 10621 10621 10622 10623 10622 10621 10621 10620 10618 10616 10614 10611 10606 10600 10595
10387 10398 10406 10416 10427 10437 10447 10455 10463 10472 10481 10490 10499 10507 10520 10530 10538 10547 10554 10561 10566 10570 10576 10583 10587 10592 10595 10599 10602 10602 10604 10605 10607 10608 10609 10608 10605 10603 10599 10597 10592 10589 10585 10579
10375 10387 10397 10407 10417 10425 10437 10445 10451 10458 10466 10476 10484 10494 10505 10513 10519 10529 10537 10543 10549 10554 10560 10566 10570 10574 10579 10581 10583 10585 10586 10589 10591 10591 10589 10589 10588 10586 10584 10581 10578 10574 10568 10562
10363 10373 10384 10399 10409 10417 10426 10435 10442 10446 10452 10460 10470 10479 10488 10496 10501 10508 10518 10525 10532 10538 10544 10549 10552 10557 10560 10563 10564 10568 10569 10572 10575 10573 10572 10574 10572 10570 10568 10566 10563 10555 10550 10545
10352 10360 10369 10383 10395 10403 10412 10420 10427 10432 10439 10444 10454 10462 10471 10479 10483 10490 10497 10504 10513 10519 10526 10531 10537 10540 10542 10544 10548 10552 10552 10555 10557 10555 10556 10555 10554 10551 10547 10543 10541 10537 10534 10528
10341 10347 10357 10368 10376 10386 10395 10404 10413 10421 10425 10430 10439 10449 10456 10463 10467 10475 10482 10488 10493 10501 10507 10512 10517 10521 10524 10526 10529 10533 10536 10538 10536 10538 10540 10538 10536 10534 10532 10529 10525 10523 10517 10511
10326 10336 10346 10352 10358 10370 10375 10385 10396 10402 10410 10415 10421 10429 10438 10444 10450 10458 10464 10470 10477 10483 10488 10493 10498 10503 10507 10508 10511 10512 10514 10512 10518 10520 10521 10520 10517 10514 10512 10510 10506 10502 10497 10491
10313 10321 10330 10336 10342 10350 10357 10370 10377 10385 10392 10397 10405 10411 10415 10425 10431 10437 10444 10452 10458 10463 10467 10472 10477 10483 10486 10489 10491 10492 10492 10493 10498 10497 10498 10496 10494 10491 10491 10487 10484 10480 10474 10466
10299 10306 10315 10324 10330 10338 10343 10351 10356 10362 10372 10380 10387 10393 10400 10405 10409 10418 10426 10431 10436 10441 10446 10450 10454 10459 10463 10466 10469 10470 10470 10470 10476 10475 10475 10473 10470 10467 10466 10466 10463 10455 10449 10441
10290 10296 10300 10305 10310 10322 10328 10334 10340 10349 10356 10364 10371 10376 10380 10387 10393 10399 10401 10406 10413 10419 10423 10427 10431 10434 10438 10441 10444 10445 10446 10446 10448 10451 10450 10449 10446 10443 10441 10439 10435 10431 10426 10417
10278 10280 10283 10284 10297 10303 10311 10320 10327 10336 10340 10347 10351 10353 10356 10362 10368 10372 10380 10384 10389 10393 10398 10402 10407 10411 10415 10419 10421 10422 10422 10423 10422 10423 10425 10423 10422 10421 10418 10416 10411 10406 10400 10392